EW2517 Weather Reports


time (UTC)temp
C
wind
direction
speed
KPH
gust
KPH
rain 1hr
cm
rain 24hr
cm
rain mn
cm
humidity
%
barometer
mb
20260507224532 14 360 1.6 6.4 0.00 0.15 0.00 37 1005.9
20260507223005 15 360 0.0 6.4 0.00 0.15 0.00 37 1005.7
20260507221503 15 360 0.0 6.4 0.00 0.15 0.00 37 1005.7
20260507220049 15 360 1.6 4.8 0.00 0.15 0.00 34 1005.5
20260507214549 16 360 1.6 9.7 0.00 0.25 0.15 34 1005.4
20260507213054 16 24 3.2 12.9 0.00 0.25 0.15 33 1005.4
20260507211552 16 43 1.6 8.0 0.00 0.25 0.15 34 1005.4
20260507210045 16 65 1.6 6.4 0.00 0.25 0.15 34 1005.4
20260507204545 16 62 3.2 9.7 0.00 0.38 0.15 35 1005.3
20260507203046 16 200 3.2 9.7 0.00 0.38 0.15 37 1005.1
20260507201548 16 71 1.6 11.3 0.00 0.38 0.15 35 1005.2
20260507200037 17 160 3.2 14.5 0.00 0.38 0.15 32 1005.3
20260507194531 18 90 3.2 9.7 0.00 0.43 0.15 34 1005.4
20260507193034 17 148 3.2 12.9 0.00 0.43 0.15 34 1005.4
20260507191529 18 261 1.6 8.0 0.00 0.43 0.15 33 1005.6
20260507190026 18 107 3.2 14.5 0.00 0.43 0.15 36 1005.8
20260507184525 17 34 1.6 6.4 0.00 0.51 0.15 34 1005.9
20260507183026 17 68 3.2 14.5 0.00 0.51 0.15 35 1006.2
20260507181524 17 59 1.6 17.7 0.00 0.51 0.15 34 1006.4
20260507180023 17 19 4.8 16.1 0.00 0.51 0.15 33 1006.4
20260507174611 17 212 1.6 9.7 0.00 0.51 0.15 31 1006.3
20260507173016 17 49 3.2 12.9 0.00 0.51 0.15 32 1006.2
20260507171507 17 360 3.2 12.9 0.00 0.51 0.15 34 1006.3
20260507170016 17 62 1.6 9.7 0.00 0.51 0.15 35 1006.4
20260507164504 16 113 3.2 11.3 0.00 0.51 0.15 35 1006.6
20260507163002 16 267 3.2 14.5 0.00 0.51 0.15 37 1006.7
20260507161505 16 249 4.8 14.5 0.00 0.51 0.15 37 1006.9
20260507160050 16 109 3.2 11.3 0.00 0.51 0.15 43 1007.1
20260507154547 16 61 3.2 16.1 0.00 0.51 0.15 45 1007.1
20260507153047 15 153 1.6 12.9 0.00 0.51 0.15 48 1007.2
20260507151542 15 80 3.2 12.9 0.00 0.51 0.15 56 1007.3
20260507150043 14 360 4.8 14.5 0.00 0.51 0.15 57 1007.4
20260507144543 14 61 3.2 9.7 0.00 0.51 0.15 60 1007.6
20260507143051 14 84 3.2 9.7 0.00 0.51 0.15 64 1007.5
20260507141540 14 360 3.2 11.3 0.00 0.51 0.15 61 1007.5
20260507140033 14 69 1.6 6.4 0.00 0.51 0.15 60 1007.4
20260507134526 14 229 3.2 14.5 0.00 0.51 0.15 59 1007.3
20260507133026 13 74 1.6 11.3 0.00 0.51 0.15 63 1007.4
20260507131525 13 72 1.6 6.4 0.00 0.51 0.15 65 1007.7
20260507130023 13 78 1.6 6.4 0.00 0.51 0.15 68 1007.8
20260507124524 12 242 1.6 6.4 0.00 0.51 0.15 68 1007.8
20260507123023 12 68 1.6 8.0 0.00 0.51 0.15 75 1007.9
20260507121521 11 206 1.6 4.8 0.00 0.51 0.15 79 1008.1
20260507120019 10 253 1.6 4.8 0.00 0.51 0.15 84 1008.0
20260507114517 8 360 0.0 3.2 0.00 0.51 0.15 86 1008.0
20260507111557 8 239 0.0 3.2 0.00 0.51 0.15 89 1007.9
20260507110056 8 226 0.0 0.0 0.00 0.51 0.15 90 1007.9
20260507104549 8 226 0.0 0.0 0.00 0.51 0.15 91 1007.7
20260507103107 8 257 0.0 0.0 0.00 0.51 0.15 91 1007.3
20260507101542 8 257 0.0 0.0 0.00 0.51 0.15 90 1007.3
20260507100055 8 257 0.0 0.0 0.00 0.51 0.15 90 1007.1
20260507094542 8 257 0.0 0.0 0.00 0.51 0.15 91 1007.3
20260507093040 8 257 0.0 1.6 0.00 0.51 0.15 90 1007.6
20260507080020 10 223 0.0 1.6 0.03 0.51 0.15 89 1006.9
20260507074517 10 223 0.0 3.2 0.00 0.48 0.13 88 1007.0
20260507073016 10 102 0.0 4.8 0.00 0.48 0.13 88 1006.9
20260507071520 10 360 0.0 0.0 0.00 0.48 0.13 89 1006.7
20260507070013 10 360 0.0 3.2 0.00 0.48 0.13 89 1006.5
20260507064511 10 360 0.0 3.2 0.00 0.48 0.13 89 1006.4
20260507063059 10 360 0.0 1.6 0.00 0.48 0.13 89 1006.3
20260507061557 10 360 0.0 4.8 0.00 0.48 0.13 88 1006.2
20260507060101 11 360 0.0 0.0 0.00 0.48 0.13 88 1006.4
20260507054612 11 360 0.0 3.2 0.00 0.48 0.13 88 1006.8
20260507053105 11 360 0.0 3.2 0.00 0.48 0.13 89 1006.9
20260507051557 11 360 0.0 3.2 0.00 0.48 0.13 88 1006.7
20260507050055 11 360 1.6 3.2 0.00 0.48 0.13 88 1006.8
20260507044554 11 360 0.0 4.8 0.00 0.48 0.13 89 1006.3
20260507043046 12 360 0.0 3.2 0.00 0.48 0.13 90 1006.7
20260507041526 12 360 0.0 4.8 0.00 0.48 0.13 90 1006.8
20260507040023 12 360 0.0 4.8 0.00 0.48 0.13 90 1006.7
20260507034508 13 360 0.0 0.0 0.00 0.48 0.13 91 1006.3
20260507033005 13 360 0.0 1.6 0.00 0.48 0.13 91 1005.9
20260507031502 13 360 0.0 1.6 0.00 0.48 0.13 91 1005.8
20260507030104 14 360 0.0 4.8 0.00 0.48 0.13 92 1005.6
20260507024556 15 360 0.0 1.6 0.00 0.48 0.13 92 1005.5
20260507023052 15 360 0.0 4.8 0.00 0.48 0.13 92 1005.5
20260507021601 15 360 3.2 8.0 0.00 0.48 0.13 92 1005.2
20260507020107 15 360 0.0 6.4 0.00 0.48 0.13 92 1004.8
20260507014542 15 360 0.0 3.2 0.00 0.48 0.13 92 1005.0
20260507013043 15 360 0.0 6.4 0.00 0.48 0.13 92 1004.9
20260507011541 15 360 0.0 6.4 0.00 0.48 0.13 92 1005.0
20260507010041 15 360 0.0 4.8 0.00 0.48 0.13 92 1004.9
20260507004530 15 360 1.6 8.0 0.00 0.48 0.13 92 1005.0
20260507003028 15 360 0.0 8.0 0.00 0.48 0.13 92 1004.8
20260507001535 15 360 1.6 4.8 0.03 0.48 0.13 92 1004.8
20260507000026 15 360 1.6 4.8 0.05 0.48 0.13 92 1004.8
20260506234504 15 360 0.0 6.4 0.08 0.48 0.13 92 1004.6
20260506233100 15 360 0.0 6.4 0.10 0.48 0.13 92 1004.5
20260506231547 15 360 0.0 12.9 0.08 0.46 0.10 92 1004.5
20260506230052 15 360 0.0 6.4 0.08 0.43 0.08 92 1004.7